Stevens Point, WI

10:39 AM CDT on March 27, 2017 (GMT -0500)
Stevens Point Municipal

Weather History for KSTE - November, 2011

Change the Weather History Date:

Monday, November 14, 2011

  Actual Average Record
Temperature  
Mean Temperature 39 °F -  
Max Temperature 48 °F 40 °F 65 °F (1953)
Min Temperature 30 °F 24 °F 6 °F (1959)
Degree Days  
Heating Degree Days 26    
Moisture  
Dew Point 34 °F    
Average Humidity 77    
Maximum Humidity 93    
Minimum Humidity 57    
Precipitation  
Precipitation 0.03 in - - ()
Sea Level Pressure  
Sea Level Pressure 29.51 in    
Wind  
Wind Speed 5 mph (SSW)    
Max Wind Speed 17 mph    
Max Gust Speed 21 mph    
Visibility 10 miles    
Events Rain    
Averages and records for this station are not official NWS values.
T = Trace of Precipitation, MM = Missing Value Source: NWS Daily Summary

Daily Weather History Graph

Daily Weather History Graph

Search for Another Location

Airport or City:

Trip Planner

Search our weather history database for the weather conditions in past years. The results will help you decide how hot, cold, wet, or windy it might be!

Date:

Astronomy

Nov. 14, 2011 Rise Set
Actual Time 6:52 AM CST 4:31 PM CST
Civil Twilight 6:21 AM CST 5:03 PM CST
Nautical Twilight 5:46 AM CST 5:38 PM CST
Astronomical Twilight 5:11 AM CST 6:12 PM CST
Moon 7:35 PM CST (11/14) 10:14 AM CST (11/14)
Length of Visible Light 10h 41m
Length of Day
9h 38m
Waning Gibbous, 86% of the Moon is Illuminated
Nov 14
Waning Gibbous
Nov 18
Last Quarter
Nov 25
New
Dec 2
First Quarter
Dec 10
Full

Hourly Weather History & Observations

Time (CST) Temp. Windchill Dew Point Humidity Pressure Visibility Wind Dir Wind Speed Gust Speed Precip Events Conditions
12:15 AM 41.0 °F 37.1 °F 33.8 °F 76% 29.51 in 10.0 mi SW 5.8 mph - N/A   Clear
12:35 AM 41.0 °F 37.1 °F 32.0 °F 70% 29.52 in 10.0 mi WSW 5.8 mph - N/A   Clear
12:55 AM 41.0 °F 39.0 °F 32.0 °F 70% 29.52 in 10.0 mi SW 3.5 mph - N/A   Clear
1:15 AM 39.2 °F 35.9 °F 32.0 °F 75% 29.52 in 10.0 mi WSW 4.6 mph - N/A   Clear
1:35 AM 39.2 °F 37.0 °F 32.0 °F 75% 29.53 in 10.0 mi SW 3.5 mph - N/A   Clear
1:55 AM 37.4 °F - 32.0 °F 81% 29.53 in 10.0 mi Calm Calm - N/A   Clear
2:15 AM 37.4 °F 34.9 °F 30.2 °F 75% 29.53 in 10.0 mi SSW 3.5 mph - N/A   Clear
2:35 AM 37.4 °F 33.8 °F 30.2 °F 75% 29.53 in 10.0 mi SSW 4.6 mph - N/A   Clear
2:55 AM 35.6 °F 31.7 °F 30.2 °F 81% 29.53 in 10.0 mi SSW 4.6 mph - N/A   Clear
3:15 AM 35.6 °F 30.7 °F 30.2 °F 81% 29.52 in 10.0 mi South 5.8 mph - N/A   Clear
3:35 AM 35.6 °F 31.7 °F 30.2 °F 81% 29.52 in 10.0 mi SSW 4.6 mph - N/A   Clear
3:55 AM 35.6 °F 31.7 °F 30.2 °F 81% 29.52 in 10.0 mi South 4.6 mph - N/A   Clear
4:15 AM 33.8 °F 30.8 °F 30.2 °F 87% 29.52 in 10.0 mi South 3.5 mph - N/A   Clear
4:35 AM 32.0 °F - 30.2 °F 93% 29.51 in 10.0 mi Calm Calm - N/A   Clear
4:55 AM 32.0 °F - 28.4 °F 87% 29.51 in 7.0 mi Calm Calm - N/A   Clear
5:15 AM 30.2 °F - 28.4 °F 93% 29.52 in 7.0 mi Calm Calm - N/A   Clear
5:35 AM 30.2 °F 24.3 °F 28.4 °F 93% 29.52 in 7.0 mi South 5.8 mph - N/A   Clear
6:15 AM 32.0 °F - 30.2 °F 93% 29.52 in 10.0 mi Calm Calm - N/A   Clear
6:35 AM 33.8 °F - 30.2 °F 87% 29.52 in 10.0 mi Calm Calm - N/A   Clear
6:55 AM 32.0 °F - 30.2 °F 93% 29.51 in 7.0 mi Calm Calm - N/A   Clear
7:35 AM 30.2 °F - 28.4 °F 93% 29.52 in 5.0 mi Calm Calm - N/A   Clear
7:55 AM 33.8 °F - 30.2 °F 87% 29.52 in 7.0 mi Calm Calm - N/A   Clear
8:35 AM 39.2 °F 34.2 °F 33.8 °F 81% 29.53 in 10.0 mi SSW 6.9 mph - N/A   Clear
8:55 AM 39.2 °F 32.5 °F 33.8 °F 81% 29.54 in 10.0 mi SSW 10.4 mph - N/A   Clear
9:15 AM 39.2 °F 33.6 °F 33.8 °F 81% 29.54 in 10.0 mi South 8.1 mph - N/A   Clear
9:35 AM 39.2 °F 34.2 °F 33.8 °F 81% 29.53 in 10.0 mi South 6.9 mph - N/A   Clear
9:55 AM 41.0 °F 36.4 °F 33.8 °F 76% 29.52 in 10.0 mi South 6.9 mph - N/A   Clear
10:15 AM 42.8 °F 37.5 °F 35.6 °F 76% 29.53 in 10.0 mi SSW 9.2 mph - N/A   Clear
10:55 AM 44.6 °F 40.7 °F 35.6 °F 71% 29.51 in 10.0 mi South 6.9 mph - N/A   Clear
11:15 AM 46.4 °F 41.5 °F 35.6 °F 66% 29.51 in 10.0 mi SSW 10.4 mph - N/A   Scattered Clouds
11:35 AM 48.2 °F - 33.8 °F 58% 29.50 in 10.0 mi SSW 17.3 mph 20.7 mph N/A   Mostly Cloudy
11:55 AM 48.2 °F - 33.8 °F 58% 29.49 in 10.0 mi SSW 11.5 mph 18.4 mph N/A   Scattered Clouds
12:15 PM 48.2 °F - 33.8 °F 58% 29.49 in 10.0 mi SSW 10.4 mph 18.4 mph N/A   Scattered Clouds
12:35 PM 48.2 °F - 37.4 °F 66% 29.47 in 10.0 mi SSW 8.1 mph 18.4 mph N/A Rain Light Rain
12:55 PM 46.4 °F 43.5 °F 37.4 °F 71% 29.47 in 10.0 mi SW 5.8 mph 9.2 mph N/A Rain Light Rain
1:15 PM 46.4 °F 44.3 °F 37.4 °F 71% 29.49 in 10.0 mi West 4.6 mph - N/A Rain Light Rain
1:35 PM 44.6 °F 43.1 °F 39.2 °F 81% 29.48 in 10.0 mi WNW 3.5 mph - 0.01 in Rain Light Rain
1:55 PM 46.4 °F - 39.2 °F 76% 29.47 in 10.0 mi Calm Calm - 0.01 in Rain Light Rain
2:15 PM 46.4 °F - 39.2 °F 76% 29.46 in 10.0 mi Calm Calm - N/A   Mostly Cloudy
2:35 PM 46.4 °F 45.2 °F 39.2 °F 76% 29.47 in 10.0 mi South 3.5 mph - N/A   Mostly Cloudy
2:55 PM 46.4 °F 45.2 °F 39.2 °F 76% 29.46 in 10.0 mi SE 3.5 mph - N/A   Light Drizzle
3:15 PM 48.2 °F - 39.2 °F 71% 29.46 in 10.0 mi SE 4.6 mph - N/A   Scattered Clouds
3:35 PM 48.2 °F - 39.2 °F 71% 29.46 in 10.0 mi Calm Calm - N/A   Clear
3:55 PM 48.2 °F - 39.2 °F 71% 29.46 in 10.0 mi South 3.5 mph - N/A   Clear
4:15 PM 48.2 °F - 37.4 °F 66% 29.46 in 10.0 mi South 8.1 mph - N/A   Clear
4:35 PM 46.4 °F 43.5 °F 37.4 °F 71% 29.46 in 10.0 mi South 5.8 mph - N/A   Mostly Cloudy
5:15 PM 44.6 °F 41.4 °F 39.2 °F 81% 29.48 in 10.0 mi SW 5.8 mph - 0.02 in   Mostly Cloudy
5:35 PM 44.6 °F 42.2 °F 39.2 °F 81% 29.49 in 10.0 mi SW 4.6 mph - 0.02 in   Scattered Clouds
5:55 PM 41.0 °F 39.0 °F 37.4 °F 87% 29.50 in 10.0 mi SSW 3.5 mph - 0.02 in   Scattered Clouds
6:15 PM 41.0 °F - 37.4 °F 87% 29.51 in 10.0 mi Calm Calm - N/A   Clear
6:35 PM 39.2 °F - 37.4 °F 93% 29.53 in 10.0 mi Calm Calm - N/A   Clear
6:55 PM 41.0 °F 35.8 °F 37.4 °F 87% 29.54 in 10.0 mi WSW 8.1 mph - N/A   Clear
7:15 PM 44.6 °F 41.4 °F 35.6 °F 71% 29.55 in 10.0 mi WSW 5.8 mph - N/A   Clear
7:35 PM 44.6 °F 40.7 °F 35.6 °F 71% 29.56 in 10.0 mi WSW 6.9 mph - N/A   Clear
7:55 PM 44.6 °F 40.2 °F 33.8 °F 66% 29.57 in 10.0 mi West 8.1 mph - N/A   Clear
8:15 PM 44.6 °F 39.7 °F 30.2 °F 57% 29.58 in 10.0 mi West 9.2 mph - N/A   Clear
8:35 PM 42.8 °F 38.0 °F 28.4 °F 57% 29.59 in 10.0 mi West 8.1 mph - N/A   Clear
8:55 PM 42.8 °F 39.3 °F 28.4 °F 57% 29.60 in 10.0 mi WSW 5.8 mph - N/A   Clear
9:15 PM 42.8 °F 40.1 °F 28.4 °F 57% 29.60 in 10.0 mi WSW 4.6 mph - N/A   Clear
9:35 PM 41.0 °F 38.0 °F 28.4 °F 61% 29.61 in 10.0 mi WSW 4.6 mph - N/A   Clear
9:55 PM 39.2 °F 37.0 °F 28.4 °F 65% 29.61 in 10.0 mi SW 3.5 mph - N/A   Clear
10:15 PM 39.2 °F 37.0 °F 28.4 °F 65% 29.61 in 10.0 mi SW 3.5 mph - N/A   Clear
10:35 PM 35.6 °F 31.7 °F 26.6 °F 70% 29.62 in 10.0 mi SSW 4.6 mph - N/A   Clear
10:55 PM 37.4 °F 32.8 °F 26.6 °F 65% 29.63 in 10.0 mi SW 5.8 mph - N/A   Clear
11:15 PM 39.2 °F - 26.6 °F 61% 29.64 in 10.0 mi Calm Calm - N/A   Clear
11:35 PM 39.2 °F 35.9 °F 24.8 °F 56% 29.64 in 10.0 mi WSW 4.6 mph - N/A   Clear
11:55 PM 39.2 °F 35.9 °F 24.8 °F 56% 29.64 in 10.0 mi WSW 4.6 mph - N/A   Clear